This is the latest recevied weather packets stored in our database for station/object F4BQH-13. If no packets are shown the sender has not sent any weather packets the latest 10 day(s).
| Time | Temp. | Humidity | Pressure | Rain* | Wind** | Luminosity | Snow |
|---|---|---|---|---|---|---|---|
| 1777543350 | 22.78° C | 55% | 1017.1 hPa | 0 mm | - | - | - |
| 1777543050 | 22.78° C | 55% | 1017 hPa | 0 mm | - | - | - |
| 1777542750 | 22.78° C | 56% | 1016.9 hPa | 0 mm | - | - | - |
| 1777542450 | 22.22° C | 56% | 1016.8 hPa | 0 mm | - | - | - |
| 1777542150 | 22.22° C | 56% | 1016.7 hPa | 0 mm | - | - | - |
| 1777541850 | 21.67° C | 57% | 1016.8 hPa | 0 mm | - | - | - |
| 1777541550 | 21.67° C | 57% | 1016.8 hPa | 0 mm | - | - | - |
| 1777541250 | 21.11° C | 57% | 1016.8 hPa | 0 mm | - | - | - |
| 1777540950 | 21.11° C | 57% | 1016.7 hPa | 0 mm | - | - | - |
| 1777540650 | 21.11° C | 57% | 1016.8 hPa | 0 mm | - | - | - |
| 1777540350 | 20.56° C | 57% | 1016.7 hPa | 0 mm | - | - | - |
| 1777540050 | 20.56° C | 56% | 1016.6 hPa | 0 mm | - | - | - |
| 1777539750 | 20.56° C | 56% | 1016.4 hPa | 0 mm | - | - | - |
| 1777539450 | 20° C | 56% | 1016.5 hPa | 0 mm | - | - | - |
| 1777539150 | 20.56° C | 55% | 1016.4 hPa | 0 mm | - | - | - |
| 1777538850 | 20.56° C | 55% | 1016.2 hPa | 0 mm | - | - | - |
| 1777538550 | 20.56° C | 54% | 1016.2 hPa | 0 mm | - | - | - |
| 1777538250 | 20.56° C | 53% | 1016.2 hPa | 0 mm | - | - | - |
| 1777537950 | 21.11° C | 52% | 1016.2 hPa | 0 mm | - | - | - |
| 1777537650 | 21.67° C | 51% | 1016.1 hPa | 0 mm | - | - | - |
| 1777537350 | 21.67° C | 52% | 1016.1 hPa | 0 mm | - | - | - |
| 1777537050 | 21.67° C | 51% | 1016 hPa | 0 mm | - | - | - |
| 1777536750 | 21.11° C | 51% | 1016 hPa | 0 mm | - | - | - |
| 1777536450 | 21.11° C | 52% | 1016 hPa | 0 mm | - | - | - |
| 1777536150 | 21.11° C | 54% | 1015.9 hPa | 0 mm | - | - | - |
* Rain latest hour (hover to see other rain measurements)
** Current wind speed in m/s (hover to see current wind gust speed)